INTERCOSMOS 24

Last updated on Wed Sep 17 2025 00:02:14 GMT+0000 (Coordinated Universal Time)

1 20261U 89080A 25259.58744242 .00001289 00000+0 38013-3 0 9992 2 20261 82.6061 217.6213 1189216 336.8194 18.3209 12.59226975644881
UTC large
Height (km)
Speed (km/s)
/
Latitude / Longitude
Inclination (degrees)
Orbital Period (minutes)
Azimuth
Elevation
Range (km)
Doppler Factor

Next 0 passes for location: London (51.5072 / 0.1276)

Sorry there are no passes over London.